#timestamp,LO_Frequency,Hit,StdDev 
1562612415.1,286047001.1,N
1562612435.9,286046998.1,N
1562612455.7,286047000.4,N
1562612475.5,286047000.5,N
1562612495.4,286046998.7,N
1562612515.2,286046998.6,N
1562612535.1,286046999.3,N
1562612536.0,286046999.3,N
1562612555.8,286046997.4,N
1562612575.6,286046996.6,N
1562612595.5,286046999.4,N
1562612615.3,286046998.4,N
1562612635.2,286046999.2,N
1562612655.9,286046999.4,N
1562612675.7,286046998.1,N
1562612695.6,286047001.2,N
1562612715.4,286046998.2,N
1562612735.3,286047000.9,N
1562612755.1,286046999.2,N
1562612756.0,286046999.2,N
1562612775.8,286046999.4,N
1562612795.7,286046998.4,N
1562612815.5,286046998.7,N
1562612835.3,286047001.0,N
1562612855.2,286046999.3,N
1562612875.0,286046998.7,N
1562612875.9,286046998.7,N
1562612895.8,286046999.6,N
1562612915.6,286046999.2,N
1562612935.4,286046998.8,N
1562612955.3,286046999.5,N
1562612975.1,286046996.9,Y
1562612995.9,286046997.7,P
1562613015.7,286046998.7,N
1562613035.5,286047000.6,N
1562613055.4,286046999.2,N
1562613075.2,286046998.9,N
1562613095.1,286046998.5,N
1562613096.0,286046998.5,N
1562613115.8,286047001.0,N
1562613135.6,286046998.4,N
1562613155.5,286046999.9,N
1562613175.3,286047002.2,N
1562613195.1,286047001.3,N
1562613215.9,286047002.1,N
1562613235.7,286047002.4,N
1562613255.6,286047000.5,N
1562613275.4,286047001.2,N
1562613295.2,286046999.9,N
1562613315.1,286047000.9,N
1562613316.0,286047000.9,N
1562613335.8,286046998.9,N
1562613355.6,286046999.3,N
1562613375.5,286046998.1,N
1562613395.3,286047000.8,N
1562613415.2,286047001.2,N
1562613435.9,286046999.8,N
1562613455.7,286047002.2,N
1562613475.6,286047002.8,N
1562613495.4,286047000.0,N
1562613515.3,286047001.0,N
1562613535.1,286046998.9,N
1562613536.0,286046998.9,N
1562613555.8,286046999.6,N
1562613575.7,286046998.4,N
1562613595.5,286047000.7,N
1562613615.4,286046998.3,N
1562613635.2,286046998.9,N
1562613655.0,286047001.2,N
1562613655.9,286047001.2,N
1562613675.8,286046998.8,N
1562613695.6,286046998.7,N
1562613715.4,286046998.9,N
1562613735.3,286046996.9,N
1562613755.1,286046999.2,N
1562613775.9,286046996.7,N
1562613795.7,286046998.8,N
1562613815.5,286046999.2,N
1562613835.4,286047000.8,N
1562613855.2,286046999.2,N
1562613875.1,286047000.8,N
1562613876.0,286047000.8,N
1562613895.8,286047002.7,N
1562613915.6,286047002.3,N
1562613935.5,286047002.5,N
1562613955.3,286047004.0,N
1562613975.1,286047003.2,N
1562613995.9,286047001.7,N
1562614015.7,286047005.8,Y
1562614035.6,286047004.0,P
1562614055.4,286047003.3,N
1562614075.3,286047005.6,P
1562614095.1,286047003.3,N
1562614096.0,286047003.3,N
1562614115.8,286047004.3,N
1562614135.7,286047003.2,N
1562614155.5,286047003.0,N
1562614175.4,286047002.8,N
1562614195.2,286047000.1,N
1562614215.0,286047001.8,N
1562614215.9,286047001.8,N
1562614235.8,286047003.6,N
1562614255.6,286047006.0,Y
1562614275.5,286047002.7,P
1562614295.3,286047000.0,N
1562614315.1,286047011.9,P
1562614335.9,286047002.7,N
1562614355.7,286047001.0,N
1562614375.5,286047002.8,N
1562614395.4,286047000.2,N
1562614415.2,286046999.8,N
1562614435.1,286047001.5,N
1562614436.0,286047001.5,N
1562614455.8,286047001.7,N
1562614475.6,286047004.4,N
1562614495.5,286047003.3,N
1562614515.3,286047003.2,N
1562614535.2,286047003.1,N
1562614555.9,286047004.6,N
1562614575.7,286047004.8,N
1562614595.6,286047005.2,N
1562614615.4,286047005.2,N
1562614635.2,286047005.8,N
1562614655.1,286047005.2,N
1562614656.0,286047005.2,N
1562614675.8,286047006.0,N
1562614695.7,286047006.0,N
1562614715.5,286047001.6,N
1562614735.3,286047003.3,N
1562614755.2,286047003.8,N
1562614775.0,286047003.4,N
1562614775.9,286047003.4,N
1562614795.7,286047004.4,N
1562614815.8,286047002.1,N
1562614835.6,286047003.5,N
1562614855.4,286047003.3,N
1562614875.3,286047003.2,N
1562614895.1,286047002.9,N
1562614915.8,286047003.5,N
1562614935.7,286047004.7,N
1562614955.5,286047004.8,Y
1562614975.4,286047000.1,P
1562614995.2,286047000.7,N
1562615015.0,286046999.3,N
1562615015.9,286046999.3,N
1562615035.8,286047000.8,N
1562615055.6,286046999.3,N
1562615075.4,286046998.9,N
1562615095.3,286047001.1,N
1562615115.1,286046999.9,N
1562615135.9,286047000.9,N
1562615155.7,286047002.3,N
1562615175.5,286047002.5,N
1562615195.4,286047001.2,N
1562615215.2,286046999.5,N
1562615235.1,286046998.3,N
1562615236.0,286046998.3,N
1562615255.8,286047000.7,N
1562615275.6,286047000.2,N
1562615295.5,286047002.3,N
1562615315.3,286047003.9,N
1562615335.1,286047002.0,N
1562615355.9,286046999.9,N
1562615375.7,286047004.3,N
1562615395.6,286047004.1,N
1562615415.4,286047004.2,N
1562615435.2,286047003.5,N
1562615455.1,286047005.5,N
1562615475.2,286047005.6,N
1562615495.1,286047003.6,N
1562615496.0,286047003.6,N
1562615515.8,286047001.7,N
1562615535.6,286047003.5,N
1562615555.5,286047003.5,N
1562615575.3,286047005.2,N
1562615595.2,286047005.9,N
1562615615.9,286047001.9,N
1562615635.7,286047001.6,N
1562615655.6,286047001.8,N
1562615675.4,286047003.9,N
1562615695.3,286047004.1,N
1562615715.1,286047003.9,N
1562615735.8,286047001.3,N
1562615755.7,286047001.9,N
1562615775.5,286047004.0,N
1562615795.4,286047003.1,N
1562615815.2,286047005.0,N
1562615835.0,286047002.9,N
1562615835.9,286047002.9,N
1562615855.8,286047003.5,N
1562615875.6,286047003.0,N
1562615895.5,286047005.6,Y
1562615915.3,286046999.8,P
1562615935.1,286047000.5,N
1562615955.9,286047002.8,N
1562615975.7,286047002.7,N
1562615995.6,286047000.1,N
